{"data":{"norad_id":40340,"intl_designator":"2014-080C","name":"YAOGAN-25 01C","alt_names":[],"object_type":"PAYLOAD","status":"ACTIVE","operator":null,"country":"PRC","launch_date":"2014-12-10","launch_site_code":"JSC","launch_vehicle":null,"mission":null,"orbit_class":"UNKNOWN","rcs_meters":2.6275,"size_class":null,"mass_kg":null,"dimensions":null,"purposes":[],"wikipedia_slug":null,"has_3d_model":false,"image_url":null,"decayed_at":null,"tle_current":{"epoch":"2026-09-20T04:54:47.731104Z","epoch_age_seconds":66814,"freshness":"FRESH","line1":"1 40340U 14080C   26263.20471911 -.00000032  00000+0  64526-4 0  9990","line2":"2 40340  63.3852  66.4746 0375243  10.1263 350.7058 13.45356119578534","mean_motion":13.45356119,"eccentricity":0.0375243,"inclination_deg":63.3852,"raan_deg":66.4746,"arg_perigee_deg":10.1263,"mean_anomaly_deg":350.7058,"bstar":6.4526e-5,"rev_number":57853,"period_min":107.0348571403,"perigee_km":809.17960112301,"apogee_km":1369.6073071638,"semimajor_km":7467.5304541434,"source":"CELESTRAK","updated_at":"2026-09-20T09:00:14.057193Z"}}}